Showing default

INTELSAT 2-F4, 2969

Orbit data source: Space-Track

INTELSAT 2-F4, 2969 is a payload satellite owned by INTELSAT (US) in GEO that was launched on Thu, 28 Sep 1967 UTC via a THOR DELTA E1 launch vehicle from the Air Force Eastern Test Range (AFETR). Payload-class satellites include a variety of spacecraft equipped with specific instruments for various scientific and technological missions. These include communications satellites like Starlink; space stations such as the ISS; scientific satellites like the Hubble; Earth observation satellites from companies like Planet Labs, Umbra, and HawkEye 360; GPS; miniature CubeSats for education and research; and military/defense satellites.

Loading next visibility...
Identifier
2969, 1967-094A
Orbit
GEO
Country
Flag of USUS / ITSO
Related business
Manufacturer
Hughes
Mission
Non-operational spacecraft
Bus & Motor
HS-303, SVM-1 S/N 3
Mass
163 kg wet, ~65 kg dry
Launch date (UTC)
1967-09-28 (59 years ago)
Launch vehicle
THOR DELTA E1
Launch site
Air Force Eastern Test Range (AFETR)
Object type
Payload
Rocket body
Debris
Shape & HBR
Unknown
Radar Cross Section
Large (>1 m²)

Expand to show TLE details & history
Last TLE update: 1 day ago

TLE from 1 day ago
0 INTELSAT 2-F4
1 02969U 67094A   26163.16147285 -.00000235  00000-0  00000-0 0  9995
2 02969   4.0644  74.2549 0010062 141.8026  24.8002  1.00367796115268
Epoch: 2026-06-12T03:52Z
TLE epoch observation values (Epoch: 2026-06-12T03:52:31.254Z)
Latitude
0.91496°
Longitude
-77.69067°
Altitude
35,720.478 km
Speed
3.079 km/s
True Right ascension
16h 03m 44s
True Declination
0° 54' 51"
Sunlit
Object was in daylight at epoch
Visualization orbit readout
Latitude
Unknown
Longitude
Unknown
Altitude
Unknown
Speed
Unknown
Apparent Right ascension
Unknown
Apparent Declination
Unknown
Sunlit
N/A
Visualization observer readout
Local Sidereal Time
19:49:50
Azimuth
Unknown
Elevation
Unknown
Doppler factor
Unknown
Orbital elements
Apogee altitude
35,803.164 km
Perigee altitude
35,718.364 km
Semi-major axis
42,138.901 km
Eccentricity
0.00101
Inclination
4.0644°
RAAN
74.2549°
Arg. of periapsis
141.8026°
True anomaly
24.84862°
Mean anomaly
24.8002°
Eccentric anomaly
24.8244°
Mean motion
0.25091 °/min
Orbital period
1,434.78 mins
BSTAR
0
Loading maneuver chart data...
Computing Atmospheric mass density...
Loading historical data...
Loading historical data...
Loading historical data...
Loading historical data...
Loading historical data...
Loading historical data...
Loading historical data...
Other satellites on launch #94 in the year 1967 (1967-09-28 UTC)

Documentation

Showing up to 5 results
|